Index of /20260418/WXO-DD/model_rdps/10km/00/051
Name Last modified Size Description
Parent Directory -
20260418T00Z_MSC_RDPS_AbsoluteVorticity_IsbL-0250_RLatLon0.09_PT051H.grib2 2026-04-18 02:55 606K
20260418T00Z_MSC_RDPS_AbsoluteVorticity_IsbL-0500_RLatLon0.09_PT051H.grib2 2026-04-18 02:55 565K
20260418T00Z_MSC_RDPS_AbsoluteVorticity_IsbL-0700_RLatLon0.09_PT051H.grib2 2026-04-18 02:55 628K
20260418T00Z_MSC_RDPS_AbsoluteVorticity_IsbL-0850_RLatLon0.09_PT051H.grib2 2026-04-18 02:55 783K
20260418T00Z_MSC_RDPS_AirTemp_AGL-120m_RLatLon0.09_PT051H.grib2 2026-04-18 02:55 370K
20260418T00Z_MSC_RDPS_AirTemp_AGL-2m_RLatLon0.09_PT051H.grib2 2026-04-18 02:55 625K
20260418T00Z_MSC_RDPS_AirTemp_AGL-40m_RLatLon0.09_PT051H.grib2 2026-04-18 02:55 384K
20260418T00Z_MSC_RDPS_AirTemp_AGL-80m_RLatLon0.09_PT051H.grib2 2026-04-18 02:55 375K
20260418T00Z_MSC_RDPS_AirTemp_IsbL-0001_RLatLon0.09_PT051H.grib2 2026-04-18 02:55 297K
20260418T00Z_MSC_RDPS_AirTemp_IsbL-0005_RLatLon0.09_PT051H.grib2 2026-04-18 02:55 334K
20260418T00Z_MSC_RDPS_AirTemp_IsbL-0010_RLatLon0.09_PT051H.grib2 2026-04-18 02:55 309K
20260418T00Z_MSC_RDPS_AirTemp_IsbL-0020_RLatLon0.09_PT051H.grib2 2026-04-18 02:55 328K
20260418T00Z_MSC_RDPS_AirTemp_IsbL-0030_RLatLon0.09_PT051H.grib2 2026-04-18 02:55 352K
20260418T00Z_MSC_RDPS_AirTemp_IsbL-0050_RLatLon0.09_PT051H.grib2 2026-04-18 02:55 331K
20260418T00Z_MSC_RDPS_AirTemp_IsbL-0100_RLatLon0.09_PT051H.grib2 2026-04-18 02:55 425K
20260418T00Z_MSC_RDPS_AirTemp_IsbL-0150_RLatLon0.09_PT051H.grib2 2026-04-18 02:55 421K
20260418T00Z_MSC_RDPS_AirTemp_IsbL-0175_RLatLon0.09_PT051H.grib2 2026-04-18 02:55 418K
20260418T00Z_MSC_RDPS_AirTemp_IsbL-0200_RLatLon0.09_PT051H.grib2 2026-04-18 02:55 421K
20260418T00Z_MSC_RDPS_AirTemp_IsbL-0225_RLatLon0.09_PT051H.grib2 2026-04-18 02:55 420K
20260418T00Z_MSC_RDPS_AirTemp_IsbL-0250_RLatLon0.09_PT051H.grib2 2026-04-18 02:55 425K
20260418T00Z_MSC_RDPS_AirTemp_IsbL-0275_RLatLon0.09_PT051H.grib2 2026-04-18 02:55 399K
20260418T00Z_MSC_RDPS_AirTemp_IsbL-0300_RLatLon0.09_PT051H.grib2 2026-04-18 02:55 403K
20260418T00Z_MSC_RDPS_AirTemp_IsbL-0350_RLatLon0.09_PT051H.grib2 2026-04-18 02:55 418K
20260418T00Z_MSC_RDPS_AirTemp_IsbL-0400_RLatLon0.09_PT051H.grib2 2026-04-18 02:55 423K
20260418T00Z_MSC_RDPS_AirTemp_IsbL-0450_RLatLon0.09_PT051H.grib2 2026-04-18 02:55 399K
20260418T00Z_MSC_RDPS_AirTemp_IsbL-0500_RLatLon0.09_PT051H.grib2 2026-04-18 02:55 413K
20260418T00Z_MSC_RDPS_AirTemp_IsbL-0550_RLatLon0.09_PT051H.grib2 2026-04-18 02:55 434K
20260418T00Z_MSC_RDPS_AirTemp_IsbL-0600_RLatLon0.09_PT051H.grib2 2026-04-18 02:55 456K
20260418T00Z_MSC_RDPS_AirTemp_IsbL-0650_RLatLon0.09_PT051H.grib2 2026-04-18 02:55 469K
20260418T00Z_MSC_RDPS_AirTemp_IsbL-0700_RLatLon0.09_PT051H.grib2 2026-04-18 02:55 497K
20260418T00Z_MSC_RDPS_AirTemp_IsbL-0750_RLatLon0.09_PT051H.grib2 2026-04-18 02:55 534K
20260418T00Z_MSC_RDPS_AirTemp_IsbL-0800_RLatLon0.09_PT051H.grib2 2026-04-18 02:55 586K
20260418T00Z_MSC_RDPS_AirTemp_IsbL-0850_RLatLon0.09_PT051H.grib2 2026-04-18 02:55 504K
20260418T00Z_MSC_RDPS_AirTemp_IsbL-0875_RLatLon0.09_PT051H.grib2 2026-04-18 02:55 515K
20260418T00Z_MSC_RDPS_AirTemp_IsbL-0900_RLatLon0.09_PT051H.grib2 2026-04-18 02:55 514K
20260418T00Z_MSC_RDPS_AirTemp_IsbL-0925_RLatLon0.09_PT051H.grib2 2026-04-18 02:55 506K
20260418T00Z_MSC_RDPS_AirTemp_IsbL-0950_RLatLon0.09_PT051H.grib2 2026-04-18 02:55 504K
20260418T00Z_MSC_RDPS_AirTemp_IsbL-0970_RLatLon0.09_PT051H.grib2 2026-04-18 02:55 505K
20260418T00Z_MSC_RDPS_AirTemp_IsbL-0985_RLatLon0.09_PT051H.grib2 2026-04-18 02:55 501K
20260418T00Z_MSC_RDPS_AirTemp_IsbL-1000_RLatLon0.09_PT051H.grib2 2026-04-18 02:55 491K
20260418T00Z_MSC_RDPS_AirTemp_IsbL-1015_RLatLon0.09_PT051H.grib2 2026-04-18 02:55 491K
20260418T00Z_MSC_RDPS_Albedo_Sfc_RLatLon0.09_PT051H.grib2 2026-04-18 02:55 167K
20260418T00Z_MSC_RDPS_CAPE_Sfc_RLatLon0.09_PT051H.grib2 2026-04-18 02:55 1.5M
20260418T00Z_MSC_RDPS_CIN_Sfc_RLatLon0.09_PT051H.grib2 2026-04-18 02:55 1.1M
20260418T00Z_MSC_RDPS_CloudWater_EAtm_RLatLon0.09_PT051H.grib2 2026-04-18 02:55 215K
20260418T00Z_MSC_RDPS_ConvectivePrecip-Accum_Sfc_RLatLon0.09_PT051H.grib2 2026-04-18 02:55 1.1M
20260418T00Z_MSC_RDPS_DewPointDepression_AGL-2m_RLatLon0.09_PT051H.grib2 2026-04-18 02:55 396K
20260418T00Z_MSC_RDPS_DewPointDepression_IsbL-0001_RLatLon0.09_PT051H.grib2 2026-04-18 02:55 193
20260418T00Z_MSC_RDPS_DewPointDepression_IsbL-0005_RLatLon0.09_PT051H.grib2 2026-04-18 02:55 193
20260418T00Z_MSC_RDPS_DewPointDepression_IsbL-0010_RLatLon0.09_PT051H.grib2 2026-04-18 02:55 193
20260418T00Z_MSC_RDPS_DewPointDepression_IsbL-0020_RLatLon0.09_PT051H.grib2 2026-04-18 02:55 193
20260418T00Z_MSC_RDPS_DewPointDepression_IsbL-0030_RLatLon0.09_PT051H.grib2 2026-04-18 02:55 193
20260418T00Z_MSC_RDPS_DewPointDepression_IsbL-0050_RLatLon0.09_PT051H.grib2 2026-04-18 02:55 103K
20260418T00Z_MSC_RDPS_DewPointDepression_IsbL-0100_RLatLon0.09_PT051H.grib2 2026-04-18 02:55 125K
20260418T00Z_MSC_RDPS_DewPointDepression_IsbL-0150_RLatLon0.09_PT051H.grib2 2026-04-18 02:55 154K
20260418T00Z_MSC_RDPS_DewPointDepression_IsbL-0175_RLatLon0.09_PT051H.grib2 2026-04-18 02:55 182K
20260418T00Z_MSC_RDPS_DewPointDepression_IsbL-0200_RLatLon0.09_PT051H.grib2 2026-04-18 02:55 219K
20260418T00Z_MSC_RDPS_DewPointDepression_IsbL-0225_RLatLon0.09_PT051H.grib2 2026-04-18 02:55 253K
20260418T00Z_MSC_RDPS_DewPointDepression_IsbL-0250_RLatLon0.09_PT051H.grib2 2026-04-18 02:55 289K
20260418T00Z_MSC_RDPS_DewPointDepression_IsbL-0275_RLatLon0.09_PT051H.grib2 2026-04-18 02:55 297K
20260418T00Z_MSC_RDPS_DewPointDepression_IsbL-0300_RLatLon0.09_PT051H.grib2 2026-04-18 02:55 317K
20260418T00Z_MSC_RDPS_DewPointDepression_IsbL-0350_RLatLon0.09_PT051H.grib2 2026-04-18 02:55 329K
20260418T00Z_MSC_RDPS_DewPointDepression_IsbL-0400_RLatLon0.09_PT051H.grib2 2026-04-18 02:55 346K
20260418T00Z_MSC_RDPS_DewPointDepression_IsbL-0450_RLatLon0.09_PT051H.grib2 2026-04-18 02:55 365K
20260418T00Z_MSC_RDPS_DewPointDepression_IsbL-0500_RLatLon0.09_PT051H.grib2 2026-04-18 02:55 375K
20260418T00Z_MSC_RDPS_DewPointDepression_IsbL-0550_RLatLon0.09_PT051H.grib2 2026-04-18 02:55 388K
20260418T00Z_MSC_RDPS_DewPointDepression_IsbL-0600_RLatLon0.09_PT051H.grib2 2026-04-18 02:55 401K
20260418T00Z_MSC_RDPS_DewPointDepression_IsbL-0650_RLatLon0.09_PT051H.grib2 2026-04-18 02:55 402K
20260418T00Z_MSC_RDPS_DewPointDepression_IsbL-0700_RLatLon0.09_PT051H.grib2 2026-04-18 02:55 412K
20260418T00Z_MSC_RDPS_DewPointDepression_IsbL-0750_RLatLon0.09_PT051H.grib2 2026-04-18 02:55 429K
20260418T00Z_MSC_RDPS_DewPointDepression_IsbL-0800_RLatLon0.09_PT051H.grib2 2026-04-18 02:55 457K
20260418T00Z_MSC_RDPS_DewPointDepression_IsbL-0850_RLatLon0.09_PT051H.grib2 2026-04-18 02:55 467K
20260418T00Z_MSC_RDPS_DewPointDepression_IsbL-0875_RLatLon0.09_PT051H.grib2 2026-04-18 02:55 465K
20260418T00Z_MSC_RDPS_DewPointDepression_IsbL-0900_RLatLon0.09_PT051H.grib2 2026-04-18 02:55 455K
20260418T00Z_MSC_RDPS_DewPointDepression_IsbL-0925_RLatLon0.09_PT051H.grib2 2026-04-18 02:55 443K
20260418T00Z_MSC_RDPS_DewPointDepression_IsbL-0950_RLatLon0.09_PT051H.grib2 2026-04-18 02:55 437K
20260418T00Z_MSC_RDPS_DewPointDepression_IsbL-0970_RLatLon0.09_PT051H.grib2 2026-04-18 02:55 431K
20260418T00Z_MSC_RDPS_DewPointDepression_IsbL-0985_RLatLon0.09_PT051H.grib2 2026-04-18 02:55 427K
20260418T00Z_MSC_RDPS_DewPointDepression_IsbL-1000_RLatLon0.09_PT051H.grib2 2026-04-18 02:55 421K
20260418T00Z_MSC_RDPS_DewPointDepression_IsbL-1015_RLatLon0.09_PT051H.grib2 2026-04-18 02:55 410K
20260418T00Z_MSC_RDPS_DewPoint_AGL-2m_RLatLon0.09_PT051H.grib2 2026-04-18 02:55 390K
20260418T00Z_MSC_RDPS_DownwardLongwaveRadiationFlux-Accum_Sfc_RLatLon0.09_PT051H.grib2 2026-04-18 02:55 369K
20260418T00Z_MSC_RDPS_DownwardShortwaveRadiationFlux-Accum_NTAtm_RLatLon0.09_PT051H.grib2 2026-04-18 02:55 101K
20260418T00Z_MSC_RDPS_DownwardShortwaveRadiationFlux-Accum_Sfc_RLatLon0.09_PT051H.grib2 2026-04-18 02:55 551K
20260418T00Z_MSC_RDPS_FreezingRain-Accum1h_Sfc_RLatLon0.09_PT051H.grib2 2026-04-18 02:55 26K
20260418T00Z_MSC_RDPS_FreezingRain-Accum3h_Sfc_RLatLon0.09_PT051H.grib2 2026-04-18 02:55 29K
20260418T00Z_MSC_RDPS_FreezingRain-Accum_Sfc_RLatLon0.09_PT051H.grib2 2026-04-18 02:55 126K
20260418T00Z_MSC_RDPS_GeopotentialHeight_IsbL-0001_RLatLon0.09_PT051H.grib2 2026-04-18 02:55 266K
20260418T00Z_MSC_RDPS_GeopotentialHeight_IsbL-0005_RLatLon0.09_PT051H.grib2 2026-04-18 02:55 234K
20260418T00Z_MSC_RDPS_GeopotentialHeight_IsbL-0010_RLatLon0.09_PT051H.grib2 2026-04-18 02:55 309K
20260418T00Z_MSC_RDPS_GeopotentialHeight_IsbL-0020_RLatLon0.09_PT051H.grib2 2026-04-18 02:55 303K
20260418T00Z_MSC_RDPS_GeopotentialHeight_IsbL-0030_RLatLon0.09_PT051H.grib2 2026-04-18 02:55 306K
20260418T00Z_MSC_RDPS_GeopotentialHeight_IsbL-0050_RLatLon0.09_PT051H.grib2 2026-04-18 02:55 312K
20260418T00Z_MSC_RDPS_GeopotentialHeight_IsbL-0100_RLatLon0.09_PT051H.grib2 2026-04-18 02:55 287K
20260418T00Z_MSC_RDPS_GeopotentialHeight_IsbL-0150_RLatLon0.09_PT051H.grib2 2026-04-18 02:55 258K
20260418T00Z_MSC_RDPS_GeopotentialHeight_IsbL-0175_RLatLon0.09_PT051H.grib2 2026-04-18 02:55 261K
20260418T00Z_MSC_RDPS_GeopotentialHeight_IsbL-0200_RLatLon0.09_PT051H.grib2 2026-04-18 02:55 264K
20260418T00Z_MSC_RDPS_GeopotentialHeight_IsbL-0225_RLatLon0.09_PT051H.grib2 2026-04-18 02:55 265K
20260418T00Z_MSC_RDPS_GeopotentialHeight_IsbL-0250_RLatLon0.09_PT051H.grib2 2026-04-18 02:55 266K
20260418T00Z_MSC_RDPS_GeopotentialHeight_IsbL-0275_RLatLon0.09_PT051H.grib2 2026-04-18 02:55 265K
20260418T00Z_MSC_RDPS_GeopotentialHeight_IsbL-0300_RLatLon0.09_PT051H.grib2 2026-04-18 02:55 265K
20260418T00Z_MSC_RDPS_GeopotentialHeight_IsbL-0350_RLatLon0.09_PT051H.grib2 2026-04-18 02:55 231K
20260418T00Z_MSC_RDPS_GeopotentialHeight_IsbL-0400_RLatLon0.09_PT051H.grib2 2026-04-18 02:55 228K
20260418T00Z_MSC_RDPS_GeopotentialHeight_IsbL-0450_RLatLon0.09_PT051H.grib2 2026-04-18 02:55 298K
20260418T00Z_MSC_RDPS_GeopotentialHeight_IsbL-0500_RLatLon0.09_PT051H.grib2 2026-04-18 02:55 294K
20260418T00Z_MSC_RDPS_GeopotentialHeight_IsbL-0550_RLatLon0.09_PT051H.grib2 2026-04-18 02:55 292K
20260418T00Z_MSC_RDPS_GeopotentialHeight_IsbL-0600_RLatLon0.09_PT051H.grib2 2026-04-18 02:55 290K
20260418T00Z_MSC_RDPS_GeopotentialHeight_IsbL-0650_RLatLon0.09_PT051H.grib2 2026-04-18 02:55 261K
20260418T00Z_MSC_RDPS_GeopotentialHeight_IsbL-0700_RLatLon0.09_PT051H.grib2 2026-04-18 02:55 260K
20260418T00Z_MSC_RDPS_GeopotentialHeight_IsbL-0750_RLatLon0.09_PT051H.grib2 2026-04-18 02:55 346K
20260418T00Z_MSC_RDPS_GeopotentialHeight_IsbL-0800_RLatLon0.09_PT051H.grib2 2026-04-18 02:55 354K
20260418T00Z_MSC_RDPS_GeopotentialHeight_IsbL-0850_RLatLon0.09_PT051H.grib2 2026-04-18 02:55 359K
20260418T00Z_MSC_RDPS_GeopotentialHeight_IsbL-0875_RLatLon0.09_PT051H.grib2 2026-04-18 02:55 394K
20260418T00Z_MSC_RDPS_GeopotentialHeight_IsbL-0900_RLatLon0.09_PT051H.grib2 2026-04-18 02:55 399K
20260418T00Z_MSC_RDPS_GeopotentialHeight_IsbL-0925_RLatLon0.09_PT051H.grib2 2026-04-18 02:55 401K
20260418T00Z_MSC_RDPS_GeopotentialHeight_IsbL-0950_RLatLon0.09_PT051H.grib2 2026-04-18 02:55 401K
20260418T00Z_MSC_RDPS_GeopotentialHeight_IsbL-0970_RLatLon0.09_PT051H.grib2 2026-04-18 02:55 405K
20260418T00Z_MSC_RDPS_GeopotentialHeight_IsbL-0985_RLatLon0.09_PT051H.grib2 2026-04-18 02:55 414K
20260418T00Z_MSC_RDPS_GeopotentialHeight_IsbL-1000_RLatLon0.09_PT051H.grib2 2026-04-18 02:55 427K
20260418T00Z_MSC_RDPS_GeopotentialHeight_IsbL-1015_RLatLon0.09_PT051H.grib2 2026-04-18 02:55 443K
20260418T00Z_MSC_RDPS_Humidex_Sfc_RLatLon0.09_PT051H.grib2 2026-04-18 02:55 2.4M
20260418T00Z_MSC_RDPS_IcePellets-Accum1h_Sfc_RLatLon0.09_PT051H.grib2 2026-04-18 02:55 3.9K
20260418T00Z_MSC_RDPS_IcePellets-Accum3h_Sfc_RLatLon0.09_PT051H.grib2 2026-04-18 02:55 4.5K
20260418T00Z_MSC_RDPS_IcePellets-Accum_Sfc_RLatLon0.09_PT051H.grib2 2026-04-18 02:55 54K
20260418T00Z_MSC_RDPS_KIndex_Sfc_RLatLon0.09_PT051H.grib2 2026-04-18 02:55 2.5M
20260418T00Z_MSC_RDPS_LatentHeatNetFlux_Sfc_RLatLon0.09_PT051H.grib2 2026-04-18 02:55 319K
20260418T00Z_MSC_RDPS_LiftedIndex-MU-VT_IsbL-0500_RLatLon0.09_PT051H.grib2 2026-04-18 02:55 2.4M
20260418T00Z_MSC_RDPS_NetLongwaveRadiationFlux-Accum_Sfc_RLatLon0.09_PT051H.grib2 2026-04-18 02:55 544K
20260418T00Z_MSC_RDPS_NetShortwaveRadiationFlux-Accum_Sfc_RLatLon0.09_PT051H.grib2 2026-04-18 02:55 561K
20260418T00Z_MSC_RDPS_PlanetaryBoundaryLayerHeight_Sfc_RLatLon0.09_PT051H.grib2 2026-04-18 02:55 1.1M
20260418T00Z_MSC_RDPS_Precip-Accum1h_Sfc_RLatLon0.09_PT051H.grib2 2026-04-18 02:55 1.1M
20260418T00Z_MSC_RDPS_Precip-Accum3h_Sfc_RLatLon0.09_PT051H.grib2 2026-04-18 02:55 1.3M
20260418T00Z_MSC_RDPS_Precip-Accum_Sfc_RLatLon0.09_PT051H.grib2 2026-04-18 02:55 1.9M
20260418T00Z_MSC_RDPS_PrecipRate_Sfc_RLatLon0.09_PT051H.grib2 2026-04-18 02:55 178K
20260418T00Z_MSC_RDPS_PrecipType-Instant_Sfc_RLatLon0.09_PT051H.grib2 2026-04-18 02:55 571K
20260418T00Z_MSC_RDPS_Pressure-Trend3h_Sfc_RLatLon0.09_PT051H.grib2 2026-04-18 02:55 1.2M
20260418T00Z_MSC_RDPS_Pressure_MSL_RLatLon0.09_PT051H.grib2 2026-04-18 02:55 295K
20260418T00Z_MSC_RDPS_Pressure_PVU-1.5_RLatLon0.09_PT051H.grib2 2026-04-18 02:55 2.3M
20260418T00Z_MSC_RDPS_Pressure_PVU-1_RLatLon0.09_PT051H.grib2 2026-04-18 02:55 2.4M
20260418T00Z_MSC_RDPS_Pressure_PVU-2_RLatLon0.09_PT051H.grib2 2026-04-18 02:55 2.2M
20260418T00Z_MSC_RDPS_Pressure_Sfc_RLatLon0.09_PT051H.grib2 2026-04-18 02:55 500K
20260418T00Z_MSC_RDPS_RadiativeTemp_Sfc_RLatLon0.09_PT051H.grib2 2026-04-18 02:55 302K
20260418T00Z_MSC_RDPS_Rain-Accum1h_Sfc_RLatLon0.09_PT051H.grib2 2026-04-18 02:55 559K
20260418T00Z_MSC_RDPS_Rain-Accum3h_Sfc_RLatLon0.09_PT051H.grib2 2026-04-18 02:55 647K
20260418T00Z_MSC_RDPS_Rain-Accum_Sfc_RLatLon0.09_PT051H.grib2 2026-04-18 02:55 1.5M
20260418T00Z_MSC_RDPS_RelativeHumidity_AGL-2m_RLatLon0.09_PT051H.grib2 2026-04-18 02:55 1.0M
20260418T00Z_MSC_RDPS_RelativeHumidity_IsbL-0010_RLatLon0.09_PT051H.grib2 2026-04-18 02:55 633K
20260418T00Z_MSC_RDPS_RelativeHumidity_IsbL-0020_RLatLon0.09_PT051H.grib2 2026-04-18 02:55 534K
20260418T00Z_MSC_RDPS_RelativeHumidity_IsbL-0030_RLatLon0.09_PT051H.grib2 2026-04-18 02:55 467K
20260418T00Z_MSC_RDPS_RelativeHumidity_IsbL-0050_RLatLon0.09_PT051H.grib2 2026-04-18 02:55 346K
20260418T00Z_MSC_RDPS_RelativeHumidity_IsbL-0100_RLatLon0.09_PT051H.grib2 2026-04-18 02:55 263K
20260418T00Z_MSC_RDPS_RelativeHumidity_IsbL-0150_RLatLon0.09_PT051H.grib2 2026-04-18 02:55 378K
20260418T00Z_MSC_RDPS_RelativeHumidity_IsbL-0175_RLatLon0.09_PT051H.grib2 2026-04-18 02:55 467K
20260418T00Z_MSC_RDPS_RelativeHumidity_IsbL-0200_RLatLon0.09_PT051H.grib2 2026-04-18 02:55 554K
20260418T00Z_MSC_RDPS_RelativeHumidity_IsbL-0225_RLatLon0.09_PT051H.grib2 2026-04-18 02:55 621K
20260418T00Z_MSC_RDPS_RelativeHumidity_IsbL-0250_RLatLon0.09_PT051H.grib2 2026-04-18 02:55 683K
20260418T00Z_MSC_RDPS_RelativeHumidity_IsbL-0275_RLatLon0.09_PT051H.grib2 2026-04-18 02:55 701K
20260418T00Z_MSC_RDPS_RelativeHumidity_IsbL-0300_RLatLon0.09_PT051H.grib2 2026-04-18 02:55 740K
20260418T00Z_MSC_RDPS_RelativeHumidity_IsbL-0350_RLatLon0.09_PT051H.grib2 2026-04-18 02:55 758K
20260418T00Z_MSC_RDPS_RelativeHumidity_IsbL-0400_RLatLon0.09_PT051H.grib2 2026-04-18 02:55 779K
20260418T00Z_MSC_RDPS_RelativeHumidity_IsbL-0450_RLatLon0.09_PT051H.grib2 2026-04-18 02:55 800K
20260418T00Z_MSC_RDPS_RelativeHumidity_IsbL-0500_RLatLon0.09_PT051H.grib2 2026-04-18 02:55 817K
20260418T00Z_MSC_RDPS_RelativeHumidity_IsbL-0550_RLatLon0.09_PT051H.grib2 2026-04-18 02:55 849K
20260418T00Z_MSC_RDPS_RelativeHumidity_IsbL-0600_RLatLon0.09_PT051H.grib2 2026-04-18 02:55 870K
20260418T00Z_MSC_RDPS_RelativeHumidity_IsbL-0650_RLatLon0.09_PT051H.grib2 2026-04-18 02:55 876K
20260418T00Z_MSC_RDPS_RelativeHumidity_IsbL-0700_RLatLon0.09_PT051H.grib2 2026-04-18 02:55 896K
20260418T00Z_MSC_RDPS_RelativeHumidity_IsbL-0750_RLatLon0.09_PT051H.grib2 2026-04-18 02:55 937K
20260418T00Z_MSC_RDPS_RelativeHumidity_IsbL-0800_RLatLon0.09_PT051H.grib2 2026-04-18 02:55 1.0M
20260418T00Z_MSC_RDPS_RelativeHumidity_IsbL-0850_RLatLon0.09_PT051H.grib2 2026-04-18 02:55 1.0M
20260418T00Z_MSC_RDPS_RelativeHumidity_IsbL-0875_RLatLon0.09_PT051H.grib2 2026-04-18 02:55 1.0M
20260418T00Z_MSC_RDPS_RelativeHumidity_IsbL-0900_RLatLon0.09_PT051H.grib2 2026-04-18 02:55 1.1M
20260418T00Z_MSC_RDPS_RelativeHumidity_IsbL-0925_RLatLon0.09_PT051H.grib2 2026-04-18 02:55 1.1M
20260418T00Z_MSC_RDPS_RelativeHumidity_IsbL-0950_RLatLon0.09_PT051H.grib2 2026-04-18 02:55 1.0M
20260418T00Z_MSC_RDPS_RelativeHumidity_IsbL-0970_RLatLon0.09_PT051H.grib2 2026-04-18 02:55 1.0M
20260418T00Z_MSC_RDPS_RelativeHumidity_IsbL-0985_RLatLon0.09_PT051H.grib2 2026-04-18 02:55 1.0M
20260418T00Z_MSC_RDPS_RelativeHumidity_IsbL-1000_RLatLon0.09_PT051H.grib2 2026-04-18 02:55 1.0M
20260418T00Z_MSC_RDPS_RelativeHumidity_IsbL-1015_RLatLon0.09_PT051H.grib2 2026-04-18 02:55 1.0M
20260418T00Z_MSC_RDPS_Runoff-Accum_Sfc_RLatLon0.09_PT051H.grib2 2026-04-18 02:55 61K
20260418T00Z_MSC_RDPS_SWEATIndex_Sfc_RLatLon0.09_PT051H.grib2 2026-04-18 02:55 2.6M
20260418T00Z_MSC_RDPS_SeeingIndex_EAtm_RLatLon0.09_PT051H.grib2 2026-04-18 02:55 1.0M
20260418T00Z_MSC_RDPS_SensibleHeatNetFlux_Sfc_RLatLon0.09_PT051H.grib2 2026-04-18 02:55 222K
20260418T00Z_MSC_RDPS_ShowalterIndex_IsbL-0500_RLatLon0.09_PT051H.grib2 2026-04-18 02:55 2.6M
20260418T00Z_MSC_RDPS_SkyTransparencyIndex_EAtm_RLatLon0.09_PT051H.grib2 2026-04-18 02:55 727K
20260418T00Z_MSC_RDPS_Snow-Accum1h_Sfc_RLatLon0.09_PT051H.grib2 2026-04-18 02:55 504K
20260418T00Z_MSC_RDPS_Snow-Accum3h_Sfc_RLatLon0.09_PT051H.grib2 2026-04-18 02:55 473K
20260418T00Z_MSC_RDPS_Snow-Accum_Sfc_RLatLon0.09_PT051H.grib2 2026-04-18 02:55 747K
20260418T00Z_MSC_RDPS_SnowDensity_Sfc_RLatLon0.09_PT051H.grib2 2026-04-18 02:55 181K
20260418T00Z_MSC_RDPS_SnowDepth_Sfc_RLatLon0.09_PT051H.grib2 2026-04-18 02:55 726K
20260418T00Z_MSC_RDPS_SoilTemp_DBS-0to10cm_RLatLon0.09_PT051H.grib2 2026-04-18 02:55 237K
20260418T00Z_MSC_RDPS_SoilTemp_Sfc_RLatLon0.09_PT051H.grib2 2026-04-18 02:55 262K
20260418T00Z_MSC_RDPS_SoilVolumetricIceContent_Sfc_RLatLon0.09_PT051H.grib2 2026-04-18 02:55 174K
20260418T00Z_MSC_RDPS_SoilVolumetricWaterContent_DBS-0to10cm_RLatLon0.09_PT051H.grib2 2026-04-18 02:55 249K
20260418T00Z_MSC_RDPS_SoilVolumetricWaterContent_DBS-0to1cm_RLatLon0.09_PT051H.grib2 2026-04-18 02:55 339K
20260418T00Z_MSC_RDPS_SpecificHumidity_AGL-120m_RLatLon0.09_PT051H.grib2 2026-04-18 02:55 466K
20260418T00Z_MSC_RDPS_SpecificHumidity_AGL-2m_RLatLon0.09_PT051H.grib2 2026-04-18 02:55 628K
20260418T00Z_MSC_RDPS_SpecificHumidity_AGL-40m_RLatLon0.09_PT051H.grib2 2026-04-18 02:55 472K
20260418T00Z_MSC_RDPS_SpecificHumidity_AGL-80m_RLatLon0.09_PT051H.grib2 2026-04-18 02:55 467K
20260418T00Z_MSC_RDPS_SpecificHumidity_IsbL-0001_RLatLon0.09_PT051H.grib2 2026-04-18 02:55 309K
20260418T00Z_MSC_RDPS_SpecificHumidity_IsbL-0005_RLatLon0.09_PT051H.grib2 2026-04-18 02:55 339K
20260418T00Z_MSC_RDPS_SpecificHumidity_IsbL-0010_RLatLon0.09_PT051H.grib2 2026-04-18 02:55 373K
20260418T00Z_MSC_RDPS_SpecificHumidity_IsbL-0020_RLatLon0.09_PT051H.grib2 2026-04-18 02:55 369K
20260418T00Z_MSC_RDPS_SpecificHumidity_IsbL-0030_RLatLon0.09_PT051H.grib2 2026-04-18 02:55 462K
20260418T00Z_MSC_RDPS_SpecificHumidity_IsbL-0050_RLatLon0.09_PT051H.grib2 2026-04-18 02:55 466K
20260418T00Z_MSC_RDPS_SpecificHumidity_IsbL-0100_RLatLon0.09_PT051H.grib2 2026-04-18 02:55 401K
20260418T00Z_MSC_RDPS_SpecificHumidity_IsbL-0150_RLatLon0.09_PT051H.grib2 2026-04-18 02:55 543K
20260418T00Z_MSC_RDPS_SpecificHumidity_IsbL-0175_RLatLon0.09_PT051H.grib2 2026-04-18 02:55 526K
20260418T00Z_MSC_RDPS_SpecificHumidity_IsbL-0200_RLatLon0.09_PT051H.grib2 2026-04-18 02:55 444K
20260418T00Z_MSC_RDPS_SpecificHumidity_IsbL-0225_RLatLon0.09_PT051H.grib2 2026-04-18 02:55 552K
20260418T00Z_MSC_RDPS_SpecificHumidity_IsbL-0250_RLatLon0.09_PT051H.grib2 2026-04-18 02:55 546K
20260418T00Z_MSC_RDPS_SpecificHumidity_IsbL-0275_RLatLon0.09_PT051H.grib2 2026-04-18 02:55 460K
20260418T00Z_MSC_RDPS_SpecificHumidity_IsbL-0300_RLatLon0.09_PT051H.grib2 2026-04-18 02:55 530K
20260418T00Z_MSC_RDPS_SpecificHumidity_IsbL-0350_RLatLon0.09_PT051H.grib2 2026-04-18 02:55 524K
20260418T00Z_MSC_RDPS_SpecificHumidity_IsbL-0400_RLatLon0.09_PT051H.grib2 2026-04-18 02:55 510K
20260418T00Z_MSC_RDPS_SpecificHumidity_IsbL-0450_RLatLon0.09_PT051H.grib2 2026-04-18 02:55 574K
20260418T00Z_MSC_RDPS_SpecificHumidity_IsbL-0500_RLatLon0.09_PT051H.grib2 2026-04-18 02:55 516K
20260418T00Z_MSC_RDPS_SpecificHumidity_IsbL-0550_RLatLon0.09_PT051H.grib2 2026-04-18 02:55 577K
20260418T00Z_MSC_RDPS_SpecificHumidity_IsbL-0600_RLatLon0.09_PT051H.grib2 2026-04-18 02:55 646K
20260418T00Z_MSC_RDPS_SpecificHumidity_IsbL-0650_RLatLon0.09_PT051H.grib2 2026-04-18 02:55 557K
20260418T00Z_MSC_RDPS_SpecificHumidity_IsbL-0700_RLatLon0.09_PT051H.grib2 2026-04-18 02:55 596K
20260418T00Z_MSC_RDPS_SpecificHumidity_IsbL-0750_RLatLon0.09_PT051H.grib2 2026-04-18 02:55 648K
20260418T00Z_MSC_RDPS_SpecificHumidity_IsbL-0800_RLatLon0.09_PT051H.grib2 2026-04-18 02:55 716K
20260418T00Z_MSC_RDPS_SpecificHumidity_IsbL-0850_RLatLon0.09_PT051H.grib2 2026-04-18 02:55 784K
20260418T00Z_MSC_RDPS_SpecificHumidity_IsbL-0875_RLatLon0.09_PT051H.grib2 2026-04-18 02:55 805K
20260418T00Z_MSC_RDPS_SpecificHumidity_IsbL-0900_RLatLon0.09_PT051H.grib2 2026-04-18 02:55 814K
20260418T00Z_MSC_RDPS_SpecificHumidity_IsbL-0925_RLatLon0.09_PT051H.grib2 2026-04-18 02:55 815K
20260418T00Z_MSC_RDPS_SpecificHumidity_IsbL-0950_RLatLon0.09_PT051H.grib2 2026-04-18 02:55 814K
20260418T00Z_MSC_RDPS_SpecificHumidity_IsbL-0970_RLatLon0.09_PT051H.grib2 2026-04-18 02:55 805K
20260418T00Z_MSC_RDPS_SpecificHumidity_IsbL-0985_RLatLon0.09_PT051H.grib2 2026-04-18 02:55 795K
20260418T00Z_MSC_RDPS_SpecificHumidity_IsbL-1000_RLatLon0.09_PT051H.grib2 2026-04-18 02:55 788K
20260418T00Z_MSC_RDPS_SpecificHumidity_IsbL-1015_RLatLon0.09_PT051H.grib2 2026-04-18 02:55 641K
20260418T00Z_MSC_RDPS_SpecificHumidity_Sfc_RLatLon0.09_PT051H.grib2 2026-04-18 02:55 290K
20260418T00Z_MSC_RDPS_StormRelativeHelicity_EtaL-10000_RLatLon0.09_PT051H.grib2 2026-04-18 02:55 1.1M
20260418T00Z_MSC_RDPS_StormSeverityIndex_EtaL-10000_RLatLon0.09_PT051H.grib2 2026-04-18 02:55 1.2M
20260418T00Z_MSC_RDPS_Thickness_IsbL-0850to0700_RLatLon0.09_PT051H.grib2 2026-04-18 02:55 180K
20260418T00Z_MSC_RDPS_Thickness_IsbL-1000to0500_RLatLon0.09_PT051H.grib2 2026-04-18 02:55 201K
20260418T00Z_MSC_RDPS_Thickness_IsbL-1000to0850_RLatLon0.09_PT051H.grib2 2026-04-18 02:55 186K
20260418T00Z_MSC_RDPS_TotalCloudCover_Sfc_RLatLon0.09_PT051H.grib2 2026-04-18 02:55 650K
20260418T00Z_MSC_RDPS_TotalTotalsIndex_Sfc_RLatLon0.09_PT051H.grib2 2026-04-18 02:55 2.4M
20260418T00Z_MSC_RDPS_UVIndex-ClearSky_Sfc_RLatLon0.09_PT051H.grib2 2026-04-18 02:55 88K
20260418T00Z_MSC_RDPS_UVIndex_Sfc_RLatLon0.09_PT051H.grib2 2026-04-18 02:55 215K
20260418T00Z_MSC_RDPS_UpwardLongwaveRadiationFlux_NTAtm_RLatLon0.09_PT051H.grib2 2026-04-18 02:55 474K
20260418T00Z_MSC_RDPS_UpwardShortwaveRadiationFlux_NTAtm_RLatLon0.09_PT051H.grib2 2026-04-18 02:55 169K
20260418T00Z_MSC_RDPS_VerticalVelocity_IsbL-0250_RLatLon0.09_PT051H.grib2 2026-04-18 02:55 556K
20260418T00Z_MSC_RDPS_VerticalVelocity_IsbL-0500_RLatLon0.09_PT051H.grib2 2026-04-18 02:55 547K
20260418T00Z_MSC_RDPS_VerticalVelocity_IsbL-0700_RLatLon0.09_PT051H.grib2 2026-04-18 02:55 606K
20260418T00Z_MSC_RDPS_VerticalVelocity_IsbL-0850_RLatLon0.09_PT051H.grib2 2026-04-18 02:55 700K
20260418T00Z_MSC_RDPS_VerticalWindShear_EtaL-6500_RLatLon0.09_PT051H.grib2 2026-04-18 02:55 1.2M
20260418T00Z_MSC_RDPS_WindChill_Sfc_RLatLon0.09_PT051H.grib2 2026-04-18 02:55 1.2M
20260418T00Z_MSC_RDPS_WindDir_AGL-10m_RLatLon0.09_PT051H.grib2 2026-04-18 02:55 950K
20260418T00Z_MSC_RDPS_WindDir_AGL-120m_RLatLon0.09_PT051H.grib2 2026-04-18 02:55 583K
20260418T00Z_MSC_RDPS_WindDir_AGL-40m_RLatLon0.09_PT051H.grib2 2026-04-18 02:55 616K
20260418T00Z_MSC_RDPS_WindDir_AGL-80m_RLatLon0.09_PT051H.grib2 2026-04-18 02:55 596K
20260418T00Z_MSC_RDPS_WindDir_IsbL-0001_RLatLon0.09_PT051H.grib2 2026-04-18 02:55 268K
20260418T00Z_MSC_RDPS_WindDir_IsbL-0005_RLatLon0.09_PT051H.grib2 2026-04-18 02:55 363K
20260418T00Z_MSC_RDPS_WindDir_IsbL-0010_RLatLon0.09_PT051H.grib2 2026-04-18 02:55 381K
20260418T00Z_MSC_RDPS_WindDir_IsbL-0020_RLatLon0.09_PT051H.grib2 2026-04-18 02:55 402K
20260418T00Z_MSC_RDPS_WindDir_IsbL-0030_RLatLon0.09_PT051H.grib2 2026-04-18 02:55 420K
20260418T00Z_MSC_RDPS_WindDir_IsbL-0050_RLatLon0.09_PT051H.grib2 2026-04-18 02:55 420K
20260418T00Z_MSC_RDPS_WindDir_IsbL-0100_RLatLon0.09_PT051H.grib2 2026-04-18 02:55 405K
20260418T00Z_MSC_RDPS_WindDir_IsbL-0150_RLatLon0.09_PT051H.grib2 2026-04-18 02:55 415K
20260418T00Z_MSC_RDPS_WindDir_IsbL-0175_RLatLon0.09_PT051H.grib2 2026-04-18 02:55 437K
20260418T00Z_MSC_RDPS_WindDir_IsbL-0200_RLatLon0.09_PT051H.grib2 2026-04-18 02:55 447K
20260418T00Z_MSC_RDPS_WindDir_IsbL-0225_RLatLon0.09_PT051H.grib2 2026-04-18 02:55 445K
20260418T00Z_MSC_RDPS_WindDir_IsbL-0250_RLatLon0.09_PT051H.grib2 2026-04-18 02:55 438K
20260418T00Z_MSC_RDPS_WindDir_IsbL-0275_RLatLon0.09_PT051H.grib2 2026-04-18 02:55 453K
20260418T00Z_MSC_RDPS_WindDir_IsbL-0300_RLatLon0.09_PT051H.grib2 2026-04-18 02:55 453K
20260418T00Z_MSC_RDPS_WindDir_IsbL-0350_RLatLon0.09_PT051H.grib2 2026-04-18 02:55 473K
20260418T00Z_MSC_RDPS_WindDir_IsbL-0400_RLatLon0.09_PT051H.grib2 2026-04-18 02:55 492K
20260418T00Z_MSC_RDPS_WindDir_IsbL-0450_RLatLon0.09_PT051H.grib2 2026-04-18 02:55 512K
20260418T00Z_MSC_RDPS_WindDir_IsbL-0500_RLatLon0.09_PT051H.grib2 2026-04-18 02:55 534K
20260418T00Z_MSC_RDPS_WindDir_IsbL-0550_RLatLon0.09_PT051H.grib2 2026-04-18 02:55 558K
20260418T00Z_MSC_RDPS_WindDir_IsbL-0600_RLatLon0.09_PT051H.grib2 2026-04-18 02:55 587K
20260418T00Z_MSC_RDPS_WindDir_IsbL-0650_RLatLon0.09_PT051H.grib2 2026-04-18 02:55 623K
20260418T00Z_MSC_RDPS_WindDir_IsbL-0700_RLatLon0.09_PT051H.grib2 2026-04-18 02:55 663K
20260418T00Z_MSC_RDPS_WindDir_IsbL-0750_RLatLon0.09_PT051H.grib2 2026-04-18 02:55 711K
20260418T00Z_MSC_RDPS_WindDir_IsbL-0800_RLatLon0.09_PT051H.grib2 2026-04-18 02:55 773K
20260418T00Z_MSC_RDPS_WindDir_IsbL-0850_RLatLon0.09_PT051H.grib2 2026-04-18 02:55 837K
20260418T00Z_MSC_RDPS_WindDir_IsbL-0875_RLatLon0.09_PT051H.grib2 2026-04-18 02:55 862K
20260418T00Z_MSC_RDPS_WindDir_IsbL-0900_RLatLon0.09_PT051H.grib2 2026-04-18 02:55 881K
20260418T00Z_MSC_RDPS_WindDir_IsbL-0925_RLatLon0.09_PT051H.grib2 2026-04-18 02:55 888K
20260418T00Z_MSC_RDPS_WindDir_IsbL-0950_RLatLon0.09_PT051H.grib2 2026-04-18 02:55 881K
20260418T00Z_MSC_RDPS_WindDir_IsbL-0970_RLatLon0.09_PT051H.grib2 2026-04-18 02:55 892K
20260418T00Z_MSC_RDPS_WindDir_IsbL-0985_RLatLon0.09_PT051H.grib2 2026-04-18 02:55 904K
20260418T00Z_MSC_RDPS_WindDir_IsbL-1000_RLatLon0.09_PT051H.grib2 2026-04-18 02:55 923K
20260418T00Z_MSC_RDPS_WindDir_IsbL-1015_RLatLon0.09_PT051H.grib2 2026-04-18 02:55 943K
20260418T00Z_MSC_RDPS_WindGust-Max_AGL-10m_RLatLon0.09_PT051H.grib2 2026-04-18 02:55 1.0M
20260418T00Z_MSC_RDPS_WindGust-Min_AGL-10m_RLatLon0.09_PT051H.grib2 2026-04-18 02:55 973K
20260418T00Z_MSC_RDPS_WindGust_AGL-10m_RLatLon0.09_PT051H.grib2 2026-04-18 02:55 1.0M
20260418T00Z_MSC_RDPS_WindSpeed_AGL-10m_RLatLon0.09_PT051H.grib2 2026-04-18 02:55 844K
20260418T00Z_MSC_RDPS_WindSpeed_AGL-120m_RLatLon0.09_PT051H.grib2 2026-04-18 02:55 539K
20260418T00Z_MSC_RDPS_WindSpeed_AGL-40m_RLatLon0.09_PT051H.grib2 2026-04-18 02:55 545K
20260418T00Z_MSC_RDPS_WindSpeed_AGL-80m_RLatLon0.09_PT051H.grib2 2026-04-18 02:55 541K
20260418T00Z_MSC_RDPS_WindSpeed_IsbL-0001_RLatLon0.09_PT051H.grib2 2026-04-18 02:55 244K
20260418T00Z_MSC_RDPS_WindSpeed_IsbL-0005_RLatLon0.09_PT051H.grib2 2026-04-18 02:55 300K
20260418T00Z_MSC_RDPS_WindSpeed_IsbL-0010_RLatLon0.09_PT051H.grib2 2026-04-18 02:55 316K
20260418T00Z_MSC_RDPS_WindSpeed_IsbL-0020_RLatLon0.09_PT051H.grib2 2026-04-18 02:55 334K
20260418T00Z_MSC_RDPS_WindSpeed_IsbL-0030_RLatLon0.09_PT051H.grib2 2026-04-18 02:55 338K
20260418T00Z_MSC_RDPS_WindSpeed_IsbL-0050_RLatLon0.09_PT051H.grib2 2026-04-18 02:55 379K
20260418T00Z_MSC_RDPS_WindSpeed_IsbL-0100_RLatLon0.09_PT051H.grib2 2026-04-18 02:55 486K
20260418T00Z_MSC_RDPS_WindSpeed_IsbL-0150_RLatLon0.09_PT051H.grib2 2026-04-18 02:55 374K
20260418T00Z_MSC_RDPS_WindSpeed_IsbL-0175_RLatLon0.09_PT051H.grib2 2026-04-18 02:55 405K
20260418T00Z_MSC_RDPS_WindSpeed_IsbL-0200_RLatLon0.09_PT051H.grib2 2026-04-18 02:55 424K
20260418T00Z_MSC_RDPS_WindSpeed_IsbL-0225_RLatLon0.09_PT051H.grib2 2026-04-18 02:55 447K
20260418T00Z_MSC_RDPS_WindSpeed_IsbL-0250_RLatLon0.09_PT051H.grib2 2026-04-18 02:55 447K
20260418T00Z_MSC_RDPS_WindSpeed_IsbL-0275_RLatLon0.09_PT051H.grib2 2026-04-18 02:55 462K
20260418T00Z_MSC_RDPS_WindSpeed_IsbL-0300_RLatLon0.09_PT051H.grib2 2026-04-18 02:55 457K
20260418T00Z_MSC_RDPS_WindSpeed_IsbL-0350_RLatLon0.09_PT051H.grib2 2026-04-18 02:55 467K
20260418T00Z_MSC_RDPS_WindSpeed_IsbL-0400_RLatLon0.09_PT051H.grib2 2026-04-18 02:55 473K
20260418T00Z_MSC_RDPS_WindSpeed_IsbL-0450_RLatLon0.09_PT051H.grib2 2026-04-18 02:55 460K
20260418T00Z_MSC_RDPS_WindSpeed_IsbL-0500_RLatLon0.09_PT051H.grib2 2026-04-18 02:55 464K
20260418T00Z_MSC_RDPS_WindSpeed_IsbL-0550_RLatLon0.09_PT051H.grib2 2026-04-18 02:55 585K
20260418T00Z_MSC_RDPS_WindSpeed_IsbL-0600_RLatLon0.09_PT051H.grib2 2026-04-18 02:55 594K
20260418T00Z_MSC_RDPS_WindSpeed_IsbL-0650_RLatLon0.09_PT051H.grib2 2026-04-18 02:55 616K
20260418T00Z_MSC_RDPS_WindSpeed_IsbL-0700_RLatLon0.09_PT051H.grib2 2026-04-18 02:55 685K
20260418T00Z_MSC_RDPS_WindSpeed_IsbL-0750_RLatLon0.09_PT051H.grib2 2026-04-18 02:55 718K
20260418T00Z_MSC_RDPS_WindSpeed_IsbL-0800_RLatLon0.09_PT051H.grib2 2026-04-18 02:55 768K
20260418T00Z_MSC_RDPS_WindSpeed_IsbL-0850_RLatLon0.09_PT051H.grib2 2026-04-18 02:55 819K
20260418T00Z_MSC_RDPS_WindSpeed_IsbL-0875_RLatLon0.09_PT051H.grib2 2026-04-18 02:55 839K
20260418T00Z_MSC_RDPS_WindSpeed_IsbL-0900_RLatLon0.09_PT051H.grib2 2026-04-18 02:55 857K
20260418T00Z_MSC_RDPS_WindSpeed_IsbL-0925_RLatLon0.09_PT051H.grib2 2026-04-18 02:55 869K
20260418T00Z_MSC_RDPS_WindSpeed_IsbL-0950_RLatLon0.09_PT051H.grib2 2026-04-18 02:55 864K
20260418T00Z_MSC_RDPS_WindSpeed_IsbL-0970_RLatLon0.09_PT051H.grib2 2026-04-18 02:55 860K
20260418T00Z_MSC_RDPS_WindSpeed_IsbL-0985_RLatLon0.09_PT051H.grib2 2026-04-18 02:55 858K
20260418T00Z_MSC_RDPS_WindSpeed_IsbL-1000_RLatLon0.09_PT051H.grib2 2026-04-18 02:55 855K
20260418T00Z_MSC_RDPS_WindSpeed_IsbL-1015_RLatLon0.09_PT051H.grib2 2026-04-18 02:55 847K
20260418T00Z_MSC_RDPS_WindU_AGL-10m_RLatLon0.09_PT051H.grib2 2026-04-18 02:55 435K
20260418T00Z_MSC_RDPS_WindU_AGL-120m_RLatLon0.09_PT051H.grib2 2026-04-18 02:55 420K
20260418T00Z_MSC_RDPS_WindU_AGL-40m_RLatLon0.09_PT051H.grib2 2026-04-18 02:55 541K
20260418T00Z_MSC_RDPS_WindU_AGL-80m_RLatLon0.09_PT051H.grib2 2026-04-18 02:55 422K
20260418T00Z_MSC_RDPS_WindU_IsbL-0001_RLatLon0.09_PT051H.grib2 2026-04-18 02:55 239K
20260418T00Z_MSC_RDPS_WindU_IsbL-0005_RLatLon0.09_PT051H.grib2 2026-04-18 02:55 306K
20260418T00Z_MSC_RDPS_WindU_IsbL-0010_RLatLon0.09_PT051H.grib2 2026-04-18 02:55 318K
20260418T00Z_MSC_RDPS_WindU_IsbL-0020_RLatLon0.09_PT051H.grib2 2026-04-18 02:55 365K
20260418T00Z_MSC_RDPS_WindU_IsbL-0030_RLatLon0.09_PT051H.grib2 2026-04-18 02:55 335K
20260418T00Z_MSC_RDPS_WindU_IsbL-0050_RLatLon0.09_PT051H.grib2 2026-04-18 02:55 400K
20260418T00Z_MSC_RDPS_WindU_IsbL-0100_RLatLon0.09_PT051H.grib2 2026-04-18 02:55 437K
20260418T00Z_MSC_RDPS_WindU_IsbL-0150_RLatLon0.09_PT051H.grib2 2026-04-18 02:55 366K
20260418T00Z_MSC_RDPS_WindU_IsbL-0175_RLatLon0.09_PT051H.grib2 2026-04-18 02:55 419K
20260418T00Z_MSC_RDPS_WindU_IsbL-0200_RLatLon0.09_PT051H.grib2 2026-04-18 02:55 436K
20260418T00Z_MSC_RDPS_WindU_IsbL-0225_RLatLon0.09_PT051H.grib2 2026-04-18 02:55 439K
20260418T00Z_MSC_RDPS_WindU_IsbL-0250_RLatLon0.09_PT051H.grib2 2026-04-18 02:55 437K
20260418T00Z_MSC_RDPS_WindU_IsbL-0275_RLatLon0.09_PT051H.grib2 2026-04-18 02:55 351K
20260418T00Z_MSC_RDPS_WindU_IsbL-0300_RLatLon0.09_PT051H.grib2 2026-04-18 02:55 346K
20260418T00Z_MSC_RDPS_WindU_IsbL-0350_RLatLon0.09_PT051H.grib2 2026-04-18 02:55 354K
20260418T00Z_MSC_RDPS_WindU_IsbL-0400_RLatLon0.09_PT051H.grib2 2026-04-18 02:55 358K
20260418T00Z_MSC_RDPS_WindU_IsbL-0450_RLatLon0.09_PT051H.grib2 2026-04-18 02:55 361K
20260418T00Z_MSC_RDPS_WindU_IsbL-0500_RLatLon0.09_PT051H.grib2 2026-04-18 02:55 469K
20260418T00Z_MSC_RDPS_WindU_IsbL-0550_RLatLon0.09_PT051H.grib2 2026-04-18 02:55 473K
20260418T00Z_MSC_RDPS_WindU_IsbL-0600_RLatLon0.09_PT051H.grib2 2026-04-18 02:55 482K
20260418T00Z_MSC_RDPS_WindU_IsbL-0650_RLatLon0.09_PT051H.grib2 2026-04-18 02:55 501K
20260418T00Z_MSC_RDPS_WindU_IsbL-0700_RLatLon0.09_PT051H.grib2 2026-04-18 02:55 523K
20260418T00Z_MSC_RDPS_WindU_IsbL-0750_RLatLon0.09_PT051H.grib2 2026-04-18 02:55 550K
20260418T00Z_MSC_RDPS_WindU_IsbL-0800_RLatLon0.09_PT051H.grib2 2026-04-18 02:55 592K
20260418T00Z_MSC_RDPS_WindU_IsbL-0850_RLatLon0.09_PT051H.grib2 2026-04-18 02:55 635K
20260418T00Z_MSC_RDPS_WindU_IsbL-0875_RLatLon0.09_PT051H.grib2 2026-04-18 02:55 642K
20260418T00Z_MSC_RDPS_WindU_IsbL-0900_RLatLon0.09_PT051H.grib2 2026-04-18 02:55 656K
20260418T00Z_MSC_RDPS_WindU_IsbL-0925_RLatLon0.09_PT051H.grib2 2026-04-18 02:55 664K
20260418T00Z_MSC_RDPS_WindU_IsbL-0950_RLatLon0.09_PT051H.grib2 2026-04-18 02:55 658K
20260418T00Z_MSC_RDPS_WindU_IsbL-0970_RLatLon0.09_PT051H.grib2 2026-04-18 02:55 656K
20260418T00Z_MSC_RDPS_WindU_IsbL-0985_RLatLon0.09_PT051H.grib2 2026-04-18 02:55 794K
20260418T00Z_MSC_RDPS_WindU_IsbL-1000_RLatLon0.09_PT051H.grib2 2026-04-18 02:55 791K
20260418T00Z_MSC_RDPS_WindU_IsbL-1015_RLatLon0.09_PT051H.grib2 2026-04-18 02:55 784K
20260418T00Z_MSC_RDPS_WindV_AGL-10m_RLatLon0.09_PT051H.grib2 2026-04-18 02:55 432K
20260418T00Z_MSC_RDPS_WindV_AGL-120m_RLatLon0.09_PT051H.grib2 2026-04-18 02:55 416K
20260418T00Z_MSC_RDPS_WindV_AGL-40m_RLatLon0.09_PT051H.grib2 2026-04-18 02:55 536K
20260418T00Z_MSC_RDPS_WindV_AGL-80m_RLatLon0.09_PT051H.grib2 2026-04-18 02:55 418K
20260418T00Z_MSC_RDPS_WindV_IsbL-0001_RLatLon0.09_PT051H.grib2 2026-04-18 02:55 289K
20260418T00Z_MSC_RDPS_WindV_IsbL-0005_RLatLon0.09_PT051H.grib2 2026-04-18 02:55 333K
20260418T00Z_MSC_RDPS_WindV_IsbL-0010_RLatLon0.09_PT051H.grib2 2026-04-18 02:55 348K
20260418T00Z_MSC_RDPS_WindV_IsbL-0020_RLatLon0.09_PT051H.grib2 2026-04-18 02:55 330K
20260418T00Z_MSC_RDPS_WindV_IsbL-0030_RLatLon0.09_PT051H.grib2 2026-04-18 02:55 331K
20260418T00Z_MSC_RDPS_WindV_IsbL-0050_RLatLon0.09_PT051H.grib2 2026-04-18 02:55 369K
20260418T00Z_MSC_RDPS_WindV_IsbL-0100_RLatLon0.09_PT051H.grib2 2026-04-18 02:55 339K
20260418T00Z_MSC_RDPS_WindV_IsbL-0150_RLatLon0.09_PT051H.grib2 2026-04-18 02:55 390K
20260418T00Z_MSC_RDPS_WindV_IsbL-0175_RLatLon0.09_PT051H.grib2 2026-04-18 02:55 418K
20260418T00Z_MSC_RDPS_WindV_IsbL-0200_RLatLon0.09_PT051H.grib2 2026-04-18 02:55 339K
20260418T00Z_MSC_RDPS_WindV_IsbL-0225_RLatLon0.09_PT051H.grib2 2026-04-18 02:55 340K
20260418T00Z_MSC_RDPS_WindV_IsbL-0250_RLatLon0.09_PT051H.grib2 2026-04-18 02:55 365K
20260418T00Z_MSC_RDPS_WindV_IsbL-0275_RLatLon0.09_PT051H.grib2 2026-04-18 02:55 376K
20260418T00Z_MSC_RDPS_WindV_IsbL-0300_RLatLon0.09_PT051H.grib2 2026-04-18 02:55 372K
20260418T00Z_MSC_RDPS_WindV_IsbL-0350_RLatLon0.09_PT051H.grib2 2026-04-18 02:55 379K
20260418T00Z_MSC_RDPS_WindV_IsbL-0400_RLatLon0.09_PT051H.grib2 2026-04-18 02:55 383K
20260418T00Z_MSC_RDPS_WindV_IsbL-0450_RLatLon0.09_PT051H.grib2 2026-04-18 02:55 362K
20260418T00Z_MSC_RDPS_WindV_IsbL-0500_RLatLon0.09_PT051H.grib2 2026-04-18 02:55 467K
20260418T00Z_MSC_RDPS_WindV_IsbL-0550_RLatLon0.09_PT051H.grib2 2026-04-18 02:55 470K
20260418T00Z_MSC_RDPS_WindV_IsbL-0600_RLatLon0.09_PT051H.grib2 2026-04-18 02:55 479K
20260418T00Z_MSC_RDPS_WindV_IsbL-0650_RLatLon0.09_PT051H.grib2 2026-04-18 02:55 499K
20260418T00Z_MSC_RDPS_WindV_IsbL-0700_RLatLon0.09_PT051H.grib2 2026-04-18 02:55 521K
20260418T00Z_MSC_RDPS_WindV_IsbL-0750_RLatLon0.09_PT051H.grib2 2026-04-18 02:55 535K
20260418T00Z_MSC_RDPS_WindV_IsbL-0800_RLatLon0.09_PT051H.grib2 2026-04-18 02:55 577K
20260418T00Z_MSC_RDPS_WindV_IsbL-0850_RLatLon0.09_PT051H.grib2 2026-04-18 02:55 622K
20260418T00Z_MSC_RDPS_WindV_IsbL-0875_RLatLon0.09_PT051H.grib2 2026-04-18 02:55 637K
20260418T00Z_MSC_RDPS_WindV_IsbL-0900_RLatLon0.09_PT051H.grib2 2026-04-18 02:55 650K
20260418T00Z_MSC_RDPS_WindV_IsbL-0925_RLatLon0.09_PT051H.grib2 2026-04-18 02:55 658K
20260418T00Z_MSC_RDPS_WindV_IsbL-0950_RLatLon0.09_PT051H.grib2 2026-04-18 02:55 649K
20260418T00Z_MSC_RDPS_WindV_IsbL-0970_RLatLon0.09_PT051H.grib2 2026-04-18 02:55 790K
20260418T00Z_MSC_RDPS_WindV_IsbL-0985_RLatLon0.09_PT051H.grib2 2026-04-18 02:55 649K
20260418T00Z_MSC_RDPS_WindV_IsbL-1000_RLatLon0.09_PT051H.grib2 2026-04-18 02:55 785K
20260418T00Z_MSC_RDPS_WindV_IsbL-1015_RLatLon0.09_PT051H.grib2 2026-04-18 02:55 779K